EW9998 Weather Reports


time (UTC)temp
C
wind
direction
speed
KPH
gust
KPH
rain 1hr
cm
rain 24hr
cm
rain mn
cm
humidity
%
barometer
mb
20260510070027 8 241 0.0 0.0 0.00 1.32 0.00 95 1009.0
20260510064526 8 360 0.0 0.0 0.00 1.32 0.00 96 1009.3
20260510063018 8 360 0.0 4.8 0.00 1.32 0.00 96 1009.5
20260510061556 8 360 0.0 1.6 0.00 1.32 0.00 96 1009.8
20260510060059 7 360 0.0 4.8 0.00 1.32 0.00 96 1009.8
20260510054540 6 360 0.0 4.8 0.00 1.32 0.00 96 1009.6
20260510053033 6 150 0.0 0.0 0.00 1.32 0.00 95 1009.2
20260510051518 6 150 0.0 0.0 0.00 1.32 0.00 95 1008.9
20260510050013 6 150 0.0 0.0 0.00 1.32 0.00 95 1009.0
20260510044556 7 150 0.0 0.0 0.00 1.32 0.00 94 1008.9
20260510043059 7 150 0.0 0.0 0.00 1.32 0.00 94 1009.0
20260510041544 7 150 0.0 0.0 0.00 1.32 0.00 94 1008.8
20260510040031 8 150 0.0 0.0 0.00 1.32 1.32 95 1008.6
20260510034513 8 150 0.0 0.0 0.00 1.32 1.32 95 1008.6
20260510033010 8 150 0.0 0.0 0.00 1.32 1.32 94 1008.6
20260510031600 8 255 0.0 0.0 0.00 1.32 1.32 94 1008.6
20260510030058 8 256 0.0 0.0 0.00 1.32 1.32 92 1008.6
20260510024600 8 256 0.0 0.0 0.00 1.32 1.32 92 1008.5
20260510023053 9 255 0.0 0.0 0.00 1.32 1.32 91 1008.3
20260510021553 10 255 0.0 0.0 0.00 1.32 1.32 90 1008.4
20260510020055 10 252 0.0 6.4 0.00 1.32 1.32 89 1008.4
20260510014551 10 162 0.0 6.4 0.00 1.32 1.32 89 1008.2
20260510013103 10 360 0.0 4.8 0.00 1.32 1.32 88 1008.2
20260510011537 10 360 0.0 0.0 0.00 1.32 1.32 89 1008.2
20260510010045 11 360 0.0 0.0 0.00 1.32 1.32 88 1008.3
20260510004514 10 360 0.0 4.8 0.00 1.32 1.32 88 1008.0
20260510003015 10 253 0.0 4.8 0.00 1.32 1.32 89 1007.7
20260510001556 10 257 0.0 4.8 0.00 1.32 1.32 89 1007.7
20260510000115 10 237 0.0 0.0 0.00 1.32 1.32 89 1007.6
20260509234557 11 223 0.0 0.0 0.00 1.32 1.32 87 1007.4
20260509233039 11 360 0.0 0.0 0.00 1.32 1.32 85 1007.3
20260509231529 11 360 0.0 1.6 0.00 1.32 1.32 84 1007.1
20260509230021 11 360 0.0 0.0 0.00 1.32 1.32 83 1006.9
20260509224502 11 360 0.0 4.8 0.00 1.32 1.32 82 1006.9
20260509223003 12 258 1.6 6.4 0.00 1.32 1.32 80 1006.8
20260509221602 12 240 1.6 8.0 0.00 1.32 1.32 80 1007.0
20260509220045 12 360 3.2 8.0 0.00 1.32 1.32 80 1007.2
20260509214520 11 360 0.0 6.4 0.00 1.32 1.32 84 1007.4
20260509213018 11 209 3.2 6.4 0.00 1.32 1.32 86 1007.5
20260509211503 11 360 3.2 8.0 0.00 1.32 1.32 86 1007.5
20260509210104 11 209 0.0 8.0 0.03 1.32 1.32 88 1007.5
20260509204600 11 360 0.0 8.0 0.03 1.32 1.32 87 1007.7
20260509203055 11 360 3.2 12.9 0.03 1.32 1.32 86 1007.9
20260509201552 10 207 3.2 9.7 0.03 1.32 1.32 86 1008.1
20260509200058 11 267 1.6 9.7 0.00 1.30 1.30 85 1008.1
20260509194548 11 242 3.2 12.9 0.00 1.30 1.30 86 1008.2
20260509193059 10 360 0.0 8.0 0.00 1.30 1.30 87 1008.3
20260509191528 10 257 1.6 12.9 0.00 1.30 1.30 87 1008.4
20260509190040 10 204 0.0 8.0 0.00 1.30 1.30 87 1008.5
20260509184526 10 202 1.6 8.0 0.03 1.30 1.30 87 1008.6
20260509183020 10 161 1.6 8.0 0.03 1.30 1.30 87 1008.5
20260509181513 10 360 0.0 9.7 0.05 1.30 1.30 87 1008.6
20260509180013 10 360 3.2 14.5 0.05 1.32 1.30 87 1008.5
20260509174511 10 153 0.0 6.4 0.05 1.30 1.27 89 1008.5
20260509173013 10 215 0.0 6.4 0.08 1.30 1.27 90 1008.5
20260509171509 10 360 0.0 0.0 0.05 1.27 1.24 92 1008.6
20260509170012 10 360 0.0 0.0 0.08 1.27 1.24 93 1008.5
20260509164503 10 360 0.0 0.0 0.08 1.24 1.22 93 1008.7
20260509163050 9 360 0.0 0.0 0.05 1.22 1.19 94 1009.1
20260509161539 9 360 0.0 0.0 0.08 1.22 1.19 95 1009.2
20260509160020 8 360 0.0 0.0 0.05 1.19 1.17 96 1009.4
20260509154514 8 360 0.0 0.0 0.03 1.17 1.14 96 1009.7
20260509153103 8 360 0.0 0.0 0.05 1.17 1.14 96 1009.9
20260509151606 7 360 0.0 0.0 0.05 1.14 1.12 96 1010.0
20260509150055 7 360 0.0 0.0 0.05 1.14 1.12 96 1010.0
20260509144554 7 360 0.0 0.0 0.08 1.14 1.12 96 1010.1
20260509143049 6 360 0.0 0.0 0.08 1.12 1.09 96 1010.2
20260509141551 6 360 0.0 0.0 0.08 1.09 1.07 96 1010.2
20260509140046 5 360 0.0 0.0 0.08 1.09 1.07 96 1010.3
20260509134553 5 360 0.0 0.0 0.05 1.07 1.04 96 1010.2
20260509133032 5 360 0.0 0.0 0.03 1.04 1.02 96 1010.1
20260509131536 5 360 0.0 0.0 0.00 1.02 0.99 96 1010.2
20260509130040 5 360 0.0 0.0 0.03 1.02 0.99 96 1010.2
20260509124528 5 360 0.0 0.0 0.03 1.02 0.99 95 1010.3
20260509123026 4 360 0.0 0.0 0.05 1.02 0.99 96 1010.4
20260509121521 4 360 0.0 0.0 0.05 1.02 0.99 95 1010.5
20260509120016 4 360 0.0 0.0 0.03 0.99 0.97 95 1010.5
20260509114514 4 360 0.0 0.0 0.08 0.99 0.97 96 1010.6
20260509113101 3 360 0.0 0.0 0.08 0.97 0.94 95 1010.6
20260509111553 3 360 0.0 0.0 0.13 0.97 0.94 95 1010.8
20260509110037 3 360 0.0 0.0 0.20 0.97 0.94 95 1010.6
20260509104535 3 360 0.0 0.0 0.20 0.91 0.89 95 1010.8
20260509103006 3 360 0.0 0.0 0.25 0.89 0.86 95 1010.8
20260509101508 2 360 0.0 0.0 0.23 0.81 0.79 95 1010.7
20260509100046 2 360 0.0 0.0 0.25 0.76 0.71 95 1010.7
20260509094547 2 360 0.0 0.0 0.20 0.71 0.69 94 1010.7
20260509093034 2 360 0.0 0.0 0.15 0.64 0.61 94 1010.8
20260509091532 2 360 0.0 0.0 0.13 0.58 0.56 94 1010.9
20260509090035 2 360 0.0 0.0 0.15 0.51 0.48 94 1010.9
20260509084536 2 360 0.0 0.0 0.23 0.51 0.48 93 1010.9
20260509083029 2 360 0.0 0.0 0.28 0.48 0.46 93 1011.1
20260509081539 2 360 0.0 0.0 0.30 0.46 0.43 92 1011.2
20260509080027 2 360 0.0 0.0 0.28 0.33 0.30 92 1011.4
20260509074527 2 360 0.0 1.6 0.25 0.28 0.25 91 1011.4
20260509073009 2 360 0.0 1.6 0.18 0.20 0.18 90 1011.6
20260509071508 2 360 0.0 1.6 0.13 0.15 0.13 89 1011.4